Home > Weather > Davis > Past weeks

Flag for USA Weather for the Past 2 Weeks in Davis, California, USA

Now
62 °F

Clear.


Feels Like: 62 °F
Forecast: 54 / 83 °F
Wind: 8 mph from South

Location: Sacramento International Airport

Current Time: May 2, 2016 at 1:57:19 AM

Latest Report: May 2, 2016 at 12:53 AM


Visibility: 10 mi

Pressure: 29.91 "Hg

Humidity: 62%

Dew Point: 49 °F

Location of DavisLocation

Historic Weather in Davis — Graph

°F

Davis Temperature Yesterday

Maximum temperature yesterday: 84 °F (at 3:53 PM)
Minimum temperature yesterday: 53 °F (at 4:53 AM)
Average temperature yesterday: 69 °F

High & Low Weather Summary for the Past Weeks

 TemperatureHumidityPressure
High87 °F (Apr 18, 3:53 PM)96% (Apr 23, 5:53 AM)30.19 "Hg (Apr 23, 5:53 AM)
Low41 °F (Apr 23, 5:53 AM)14% (Apr 20, 2:53 PM)29.77 "Hg (Apr 22, 5:53 AM)
Average63 °F53%29.93 "Hg
* Reported Apr 16 11:53 PM — May 1 11:53 PM, Davis, Weather by CustomWeather, © 2016

Note: Actual official high and low records may vary slightly from our data, if they occured in-between our weather recording intervals... More about our weather records

Advertising

Davis Weather History for the Previous 24 Hours

Scroll right to see more
 ConditionsComfort  
Time TempWeatherWind HumidityBarometerVisibility
11:53 PM
Sun, May 1
63 °FClear.7 mph63%29.90 "Hg10 mi
10:53 PM69 °FClear.12 mph39%29.90 "Hg10 mi
9:53 PM70 °FClear.8 mph39%29.89 "Hg10 mi
8:53 PM70 °FPassing clouds.6 mph39%29.85 "Hg10 mi
7:53 PM76 °FScattered clouds.15 mph31%29.83 "Hg10 mi
6:53 PM79 °FScattered clouds.10 mph24%29.80 "Hg10 mi
5:53 PM83 °FScattered clouds.8 mph24%29.80 "Hg10 mi
4:53 PM84 °FPassing clouds.No wind23%29.80 "Hg10 mi
3:53 PM84 °FSunny.3 mph22%29.80 "Hg10 mi
2:53 PM82 °FSunny.3 mph22%29.81 "Hg10 mi
1:53 PM82 °FSunny.8 mph23%29.82 "Hg10 mi
12:53 PM78 °FSunny.7 mph29%29.83 "Hg10 mi
11:53 AM76 °FSunny.3 mph31%29.85 "Hg10 mi
10:53 AM74 °FSunny.No wind32%29.85 "Hg10 mi
9:53 AM70 °FSunny.3 mph37%29.85 "Hg10 mi
8:53 AM66 °FSunny.8 mph43%29.85 "Hg10 mi
7:53 AM61 °FSunny.9 mph54%29.83 "Hg10 mi
6:53 AM55 °FClear.8 mph62%29.82 "Hg10 mi
5:53 AM53 °FClear.5 mph66%29.80 "Hg10 mi
4:53 AM53 °FClear.8 mph66%29.80 "Hg10 mi
3:53 AM54 °FClear.14 mph64%29.80 "Hg10 mi
2:53 AM55 °FClear.6 mph62%29.80 "Hg10 mi
1:53 AM57 °FClear.6 mph55%29.81 "Hg10 mi
Weather by CustomWeather, © 2016

See weather overviewHow to use our weather pages